Miscellaneous Local Product
Issued by NWS North Platte, NE

Home | Current Version | Previous Version | Text Only | Print | Product List | Glossary On
Versions: 1 2 3 4 5 6 7 8 9 10 11 12 13 14 15 16 17 18 19 20 21 22 23 24 25 26 27 28 29 30 31 32 33 34 35 36 37 38 39 40 41 42 43 44 45 46 47 48 49 50
000
AXUS43 KLBF 280810
MISLBF


WESTERN AND NORTH CENTRAL NEBRASKA HOURLY WEATHER ROUNDUP
NATIONAL WEATHER SERVICE NORTH PLATTE NE
200 AM CST FRI NOV 28 2014

***STATIONS NOT REPORTING VARIABLES SUCH AS SKY/WEATHER OR
PRESSURE ARE PROVIDED BY THE NEBRASKA DEPARTMENT OF
ROADS...RAWS...AND APRS NETWORKS...AND ARE NOT UNDER
NATIONAL WEATHER SERVICE QUALITY CONTROL***

...OBSERVATIONS IN AND NEAR THE EASTERN PANHANDLE OF NEBRASKA...

CITY           SKY/WX    TMP DP  RH WIND       PRES   REMARKS
PINE RIDGE     PTCLDY    35  28  75 CALM      29.86F
ALLIANCE       CLEAR     28  24  85 W7        29.91F WCI  21
WHITECLAY        N/A     28  25  86 SE7         N/A  WCI  21
CRESCENT LAKE    N/A     38  26  61 CALM        N/A
LISCO            N/A     32  25  74 CALM        N/A
BIG SPRINGS      N/A     33  29  86 W9          N/A  WCI  25
$$

...OBSERVATIONS IN NORTH CENTRAL NEBRASKA...

CITY           SKY/WX    TMP DP  RH WIND       PRES   REMARKS
VALENTINE      PTCLDY    31  27  85 SW6       29.85F WCI  25
THEDFORD       PTCLDY    31  27  84 CALM      29.90S
AINSWORTH      MOCLDY    34  27  74 SW6       29.85F WCI  29
O`NEILL        CLEAR     28  21  74 S12       29.87F WCI  18
ORD            PTCLDY    18  14  84 CALM      29.89F
BROKEN BOW     CLEAR     23  16  74 CALM      29.90F
BROWNLEE         N/A     40  30  66 W6          N/A
SPRINGVIEW       N/A     26  21  80 CALM        N/A
BREWSTER         N/A     30  23  74 W3          N/A
SARGENT          N/A     21  17  83 CALM        N/A
COMSTOCK         N/A     30  23  77 S5          N/A  WCI  25
CHAMBERS         N/A     27  16  62 S6          N/A  WCI  21
EWING            N/A     27  21  78 CALM        N/A
$$

...OBSERVATIONS IN SOUTHWEST NEBRASKA AND FAR NORTHEAST COLORADO...

CITY           SKY/WX    TMP DP  RH WIND       PRES   REMARKS
WRAY           FAIR      34  28  76 W9        29.99F WCI  27
HOLYOKE        FAIR      36  30  80 W10       29.98F WCI  28
IMPERIAL       CLEAR     38  26  62 W10       29.96F WCI  31
OGALLALA       CLEAR     30  28  92 W5        29.95F WCI  25
NORTH PLATTE   PTCLDY    23  20  88 NW5       29.93F WCI  17
LEXINGTON      PTCLDY    22  18  85 NW5       29.93S WCI  15
PAXTON           N/A     32  28  85 W3          N/A
BRADY            N/A     22  17  80 CALM        N/A
GOTHENBURG       N/A     27  19  71 NW3         N/A
CALLAWAY         N/A     37  30  75 W13         N/A  WCI  29
$$

...NORTH PLATTE AREA...

CITY           SKY/WX    TMP DP  RH WIND       PRES   REMARKS
AIRPORT        PTCLDY    23  20  88 NW5       29.93F WCI  17
DOWNTOWN         N/A     29  25  84 CALM        N/A
$$

...SOME WEATHER OBSERVATIONS FROM AROUND THE REGION...

CITY           SKY/WX    TMP DP  RH WIND       PRES   REMARKS
DENVER         MOCLDY    51  16  24 SW10      30.03F
LARAMIE        PTCLDY    42  18  37 SW17      30.11F
CHEYENNE       MOCLDY    52  17  25 W18G29    30.01S
SCOTTSBLUFF    CLEAR     30  25  81 E6        29.92F WCI  24
RAPID CITY     PTCLDY    37  26  64 E6        29.78F WCI  32
PIERRE         CLOUDY    20  17  88 CALM      29.79F
WINNER         FAIR      40  27  59 SW10      29.81F WCI  33
SIOUX FALLS    CLEAR     17  12  80 S8        29.94F WCI   7
OMAHA          CLEAR     26  20  77 SE13      30.05F WCI  15
GRAND ISLAND   PTCLDY    26  19  74 S9        29.94F WCI  17
KANSAS CITY    CLEAR     32  22  66 S15       30.15F WCI  22
WICHITA        PTCLDY    37  23  56 S14       30.10F WCI  28
HAYS           CLEAR     36  21  55 SW8       29.99F WCI  29
LIBERAL        CLEAR     36  25  64 SW9       30.05F WCI  29
GOODLAND       CLEAR     36  24  62 W7        30.01F WCI  30
$$



USA.gov is the U.S. government's official web portal to all federal, state and local government web resources and services.